MOLNIYA 1-56

Last updated on Aug. 2, 2020, 5:30 a.m. UTC

1 13890U 83019A   20214.26696927  .00001229  00000-0  00000-0 0  9992
2 13890  63.1833 119.6178 7159282 260.4629 317.7642  1.99854561272899
UTC
Height (km)
Latitude
Longitude
Inclination
Orbital Period
UTC large
Height (km)
Speed (km/s)
/
Latitude / Longitude
Inclination (degrees)
Orbital Period (minutes)
Azimuth
Elevation
Range (km)
Doppler Factor
iOS Compass Heading
iOS Angle

Next 30 passes for location: Hong Kong

Rise time Rise Azimuth (degrees) Set time Set Azimuth (degrees) Duration Max altitude (degrees)

No matching passes for this satellites